Skip Page Navigation
NASA JPL Caltech
NASA Logo - Jet Propulsion Laboratory + View the NASA Portal
+ Center for Near-Earth Object Studies
JPL Home Earth Solar System Stars & Galaxies Technology
JPL Solar System Dynamics
BODIES ORBITS EPHEMERIDES TOOLS PHYSICAL DATA DISCOVERY FAQ SITE MAP
IMPORTANT: The SSD Announcement email list is now available. Major changes are coming in the near future, including possible hostname and/or URL changes. To be notified of such changes, subscribe to this email list.

Please visit this page for more details.


JPL Small-Body Database Browser
Search: [ help ]  
442450 (2011 UQ228)
Classification: Main-belt Asteroid          SPK-ID: 2442450
Ephemeris | Orbit Diagram | Orbital Elements | Mission Design | Physical Parameters | Discovery Circumstances ]

[ show orbit diagram ]
Orbital Elements at Epoch 2458600.5 (2019-Apr-27.0) TDB
Reference: JPL 12 (heliocentric ecliptic J2000)
 Element Value Uncertainty (1-sigma)   Units 
e .05815251660438303 5.8912e-08  
a 2.867072044513682 4.9312e-08 au
q 2.700344589839138 1.7304e-07 au
i 2.347499184557159 5.8545e-06 deg
node 162.3473998409475 0.00015822 deg
peri 251.1375738060982 0.00016787 deg
M 173.7325883240425 5.3724e-05 deg
tp 2457744.773216417958
(2016-Dec-22.27321642)
0.00026346 TDB
period 1773.194338847615
4.85
4.5747e-05
1.252e-07
d
yr
n .2030234318444538 5.2379e-09 deg/d
Q 3.033799499188226 5.218e-08 au
  Orbit Determination Parameters
   # obs. used (total)      172  
   data-arc span      4610 days (12.62 yr)  
   first obs. used      2006-09-26  
   last obs. used      2019-05-11  
   planetary ephem.      DE431  
   SB-pert. ephem.      SB431-N16  
   condition code      0  
   norm. resid. RMS      .49125  
   source      ORB  
   producer      Otto Matic  
   solution date      2019-May-30 10:13:27  

Additional Information
 Earth MOID = 1.7119 au 
 Jupiter MOID = 2.18003 au 
 T_jup = 3.296 
[ show covariance matrix ]

Ephemeris | Orbit Diagram | Orbital Elements | Mission Design | Physical Parameters | Discovery Circumstances ]

Physical Parameter Table
Parameter Symbol Value Units Sigma Reference Notes
absolute magnitude H 17.7   n/a MPO437720  

442450 (2011 UQ228)          Discovered 2006-Sep-26 by Spacewatch at Kitt Peak
Reference: Last Updated: 2015-09-02

Alternate Designations
 2011 UQ228 = 2006 SZ237 
Ephemeris | Orbit Diagram | Orbital Elements | Mission Design | Physical Parameters | Discovery Circumstances ]
ABOUT SSD CREDITS/AWARDS PRIVACY/COPYRIGHT GLOSSARY LINKS
FirstGov
(server date/time)  
NASA Home Page
Site Manager:   Ryan S. Park
Webmaster  Alan B. Chamberlin